CAPE
0 51 6 74 23 18 10 5 0 0 0 0 0 7 13 14 0 0 81 289 252 473 802 927 1159 1361 1431 1062 1347 1179 1566 1643 1709 1651 1912 1773 1739 1718 1686 1665 1693 1586 1534 1447 1538 1372 1283 1198 1213
10 21 40 1 25 18 8 3 4 5 0 0 32 46 32 0 17 42 158 397 346 562 795 989 1085 1152 1245 1300 947 1162 1545 1644 1511 1788 1743 1528 1329 1543 1611 1469 1775 1675 1685 1559 1438 1371 1235 967 1035
6 53 12 19 3 12 3 12 0 0 1 37 57 56 39 5 19 82 245 548 600 640 856 1028 1393 1330 956 1271 1432 1312 1479 1283 1450 1371 1554 1710 1100 1254 1413 1546 1745 1660 1536 1413 1496 1403 1118 935 598
173 5 28 30 26 44 3 13 25 25 33 48 52 17 46 77 39 187 346 560 483 745 1040 1266 967 1198 1168 1034 1230 1317 1218 1168 1574 1556 1449 1398 1537 1642 1690 1720 1825 1706 1387 1331 1412 1652 1541 916 651
6 2 3 20 72 101 25 28 63 79 51 37 43 22 8 98 187 174 266 417 308 408 582 644 935 972 1475 1060 999 1100 1214 1252 1695 1527 1640 1720 1954 1884 1729 1464 1200 1051 1078 978 941 891 1054 1269 852
0 0 0 14 55 95 37 33 115 67 52 31 22 6 32 138 98 110 138 112 90 394 289 478 895 1181 1010 1384 1419 1373 1018 1360 1839 1387 1316 1267 1434 1425 1355 1354 1230 1179 1167 1052 933 895 1225 1407 985
0 0 0 6 20 82 30 81 133 111 40 33 19 9 40 80 31 72 103 149 126 246 342 581 1049 951 707 501 541 601 715 1015 1389 1099 1077 1167 1226 1632 1589 1612 1501 1497 1382 1377 1381 1293 1612 1928 990
10 0 0 0 34 104 100 92 135 143 88 40 42 7 9 68 37 49 62 44 313 637 120 407 641 671 752 609 870 760 909 1150 1037 1089 1007 1224 1432 1523 1125 871 1069 1188 1098 1217 1353 1212 1295 1576 1120
115 15 1 0 0 24 111 136 177 118 18 43 33 27 37 74 67 67 2 90 271 242 200 394 106 901 1267 1243 1151 879 875 1062 1218 1271 1042 786 1535 1426 1569 1320 1434 1455 1386 1370 1300 1223 1238 1527 1560
203 40 29 16 42 15 138 159 163 116 60 41 31 51 59 84 120 24 0 0 57 0 23 105 198 324 673 349 1051 897 904 1275 1387 1460 1188 1457 1255 1643 1823 1685 1563 1528 1514 1713 1368 650 1140 1718 1358
153 4 32 60 66 51 63 214 195 156 82 55 12 19 42 98 125 43 1 0 1 0 0 7 59 116 212 593 818 704 868 1212 1439 1094 1106 1024 1357 1611 1914 2012 1931 1925 1470 1952 1797 1435 1620 1185 1333
3 3 26 56 123 109 177 285 250 164 119 52 23 47 51 65 68 42 7 0 0 0 0 0 64 119 344 371 542 512 992 1101 1399 1484 1221 1424 1555 1986 2209 2358 2409 2183 2109 2317 2125 1987 1763 1816 910
0 0 1 36 128 191 239 286 309 215 93 13 26 56 57 54 67 61 25 0 0 0 0 0 5 89 263 241 252 442 726 1019 1292 1114 1127 1140 1597 1838 2155 2092 2091 2373 2013 2210 1970 1856 1832 1878 2030
0 12 49 39 160 379 310 321 301 106 60 51 29 41 43 48 63 74 49 0 0 0 0 0 1 126 255 371 155 399 755 1106 1160 740 489 952 1720 1861 1506 2159 2191 2082 2223 2491 2363 2130 1544 1436 1684
0 251 298 171 343 387 438 329 337 126 97 129 75 79 57 92 91 108 106 0 0 0 0 0 0 83 229 429 499 703 842 941 967 1206 809 1160 1642 2084 2344 2373 1972 1964 1982 2236 1770 1335 777 669 731
32 108 248 415 534 448 401 166 326 165 183 186 136 122 95 124 91 134 164 55 0 0 0 7 10 107 380 590 663 800 889 913 1042 1631 1557 1315 1640 2134 2350 2488 1947 2137 1809 1831 1789 1197 409 182 266
13 154 143 413 478 446 302 171 204 170 235 232 209 195 144 136 142 149 151 117 16 0 0 12 53 128 342 601 619 848 1323 837 1024 1516 1409 1274 1743 2392 2606 2313 1941 2087 1177 419 159 54 177 159 322
0 31 26 209 413 368 312 168 185 172 253 310 241 201 163 116 83 99 85 86 61 13 8 38 109 101 368 647 590 1053 931 907 1064 1402 1513 1518 1885 2365 2470 2244 2199 2131 1357 922 43 0 31 191 255
0 0 0 0 0 175 106 170 143 182 248 314 283 199 152 122 64 89 54 20 21 47 46 61 84 20 566 543 636 990 783 892 1203 1137 1451 1313 1012 1746 2093 1848 2200 2048 1491 947 982 37 0 0 7
0 0 0 0 0 1 0 3 34 202 116 267 322 273 176 140 77 54 49 0 0 34 56 65 129 11 540 790 826 1033 842 727 968 1210 1306 1078 901 1440 1975 1866 2007 2177 1765 816 311 226 0 0 0
0 0 0 0 0 0 0 0 0 49 169 288 363 330 238 134 70 64 23 7 2 0 23 172 249 50 370 566 751 849 748 635 824 1034 1131 938 1050 1067 1936 2003 1976 2185 1876 1456 1069 88 0 0 0
0 0 0 0 0 0 0 0 0 0 2 131 270 330 303 164 92 40 66 61 36 27 8 110 427 311 270 407 585 782 657 678 822 1102 938 752 991 877 1427 1927 2032 2141 1947 1663 731 1 0 0 0
0 0 0 0 0 0 0 0 0 0 0 9 205 277 298 231 96 15 6 17 21 0 0 0 127 376 319 293 507 735 769 711 631 702 800 563 612 899 1040 1774 1937 2155 2170 1568 501 0 0 0 0
0 0 0 0 0 0 0 0 0 0 0 0 33 155 224 280 146 34 0 0 13 3 52 57 98 157 303 203 307 629 825 551 450 569 716 597 458 806 906 1391 1701 2186 2162 1686 672 33 0 0 0
0 0 0 0 0 0 0 0 0 0 0 0 0 1 141 241 211 44 0 0 2 18 55 88 137 202 312 136 324 462 812 765 523 594 737 697 706 463 929 1137 1494 2056 2170 1620 734 271 0 0 0
0 0 0 0 0 0 0 0 0 0 0 0 0 0 100 239 222 153 2 0 1 11 32 85 162 292 303 18 296 447 735 829 819 817 708 748 767 782 949 1206 1663 1932 2059 1687 899 411 0 0 0
0 0 0 0 0 0 0 0 0 0 0 0 123 271 116 257 195 230 101 9 0 28 29 92 248 258 197 92 342 396 475 475 666 891 986 994 983 838 1029 1768 1803 1943 2179 1901 1283 812 165 0 0
0 0 0 0 0 0 0 0 0 0 0 0 0 13 252 361 244 214 180 96 9 22 36 87 277 254 169 315 551 484 374 286 514 742 753 821 1000 1091 1530 1649 1735 1944 2241 2027 1580 1049 481 74 0
0 0 0 0 0 0 0 0 0 0 0 0 0 4 255 454 332 260 183 173 124 33 17 78 278 302 283 421 635 684 775 662 438 507 791 932 979 1014 1140 1618 1738 1831 2045 2068 1812 1449 928 505 87
0 0 0 0 0 0 0 0 0 0 0 0 0 0 170 588 488 369 222 170 231 156 71 46 190 392 380 417 539 551 719 811 811 674 771 1001 1024 1120 1068 1281 1475 1684 1632 1841 1882 1762 1206 859 470
CIN
-16 -39 -24 -6 -3 -11 -1 0 0 0 0 0 0 -46 -67 -94 0 0 -52 -23 -33 -9 0 0 0 -1 -2 -7 -3 -5 -1 0 0 0 0 0 0 0 0 0 0 -1 0 0 0 -2 -1 -2 -3
-73 -65 -11 -8 -4 -1 -4 0 0 -33 0 -31 -42 -47 -51 0 -81 -58 -32 0 -8 -8 0 0 -2 -1 -3 -3 -5 -1 -2 0 -1 0 0 -1 -3 0 0 0 -1 0 0 -1 -12 -7 -11 -23 -15
-138 -24 -36 -9 -17 -6 0 -1 0 0 -35 -45 -65 -66 -62 -10 -66 -51 -29 0 -1 -2 0 0 0 0 -4 -3 -2 -2 -2 -2 -1 -1 0 0 -5 0 0 0 0 0 0 -2 -3 -6 -13 -21 -36
-23 -103 -65 -12 -68 -22 -14 -25 -45 -65 -36 -81 -92 -89 -63 -46 -56 -48 -8 0 -3 0 0 0 0 0 0 -3 -2 -2 0 -1 -1 0 0 0 0 0 0 0 0 -1 -19 -18 -15 -4 -1 -21 -34
-112 -115 -66 -13 -68 -23 -28 -54 -44 -41 -60 -82 -100 -115 -45 -65 -26 -55 -22 -1 -15 -11 -1 -3 0 -3 0 -2 -17 -10 -2 -3 0 -1 0 -1 0 0 -1 -9 -30 -43 -38 -44 -43 -37 -9 -2 -14
0 0 -13 -42 -10 -20 -39 -28 -38 -44 -68 -96 -109 -150 -82 -26 -54 -50 -50 -36 -53 -10 -20 -4 -2 -1 -4 0 0 -1 -20 -4 0 -6 -12 -16 -9 -12 -25 -30 -49 -46 -38 -43 -49 -39 -17 -5 -16
0 0 0 -58 -51 -12 -23 -33 -37 -60 -75 -83 -146 -160 -88 -44 -80 -55 -33 -25 -32 -17 -11 -1 0 0 -23 -46 -51 -49 -41 -21 -3 -16 -20 -19 -24 -23 -31 -23 -24 -29 -34 -28 -27 -31 -12 0 -13
-128 0 0 0 -47 -89 -85 -66 -53 -52 -93 -118 -129 -166 -179 -75 -110 -94 -60 -88 -2 0 -51 -12 -2 -11 -17 -20 -25 -30 -24 -13 -25 -19 -35 -26 -28 -38 -72 -58 -61 -48 -49 -42 -36 -49 -32 -18 -27
-133 -64 -4 0 -25 -66 -108 -62 -56 -124 -111 -107 -140 -177 -149 -107 -103 -95 -58 -65 -11 -32 -48 -16 -84 -7 0 -2 -10 -17 -25 -17 -16 -15 -38 -64 -31 -44 -35 -48 -42 -47 -40 -46 -60 -63 -56 -46 -44
-114 -63 -24 -18 -74 -108 -75 -39 -72 -103 -86 -123 -166 -167 -150 -101 -88 -160 0 0 -120 0 -96 -72 -56 -62 -36 -45 -20 -29 -32 -20 -22 -28 -46 -39 -49 -44 -33 -43 -34 -44 -49 -47 -73 -100 -77 -48 -50
-159 -57 -77 -61 -74 -120 -87 -47 -52 -70 -55 -68 -102 -169 -132 -89 -119 -144 -55 0 -30 0 0 -16 -110 -102 -74 -38 -34 -43 -36 -33 -33 -45 -56 -64 -54 -47 -32 -23 -23 -34 -56 -30 -49 -58 -47 -70 -60
-26 -98 -92 -68 -94 -85 -63 -56 -47 -49 -58 -86 -124 -144 -119 -94 -87 -132 -58 0 0 0 0 0 -106 -110 -66 -48 -40 -49 -29 -37 -32 -36 -58 -49 -34 -24 -23 -21 -25 -29 -33 -33 -43 -45 -52 -49 -79
0 0 -14 -99 -87 -76 -79 -46 -35 -50 -79 -70 -140 -168 -194 -108 -147 -98 -145 0 0 0 0 0 -40 -121 -72 -71 -87 -56 -40 -31 -36 -49 -53 -52 -36 -28 -24 -31 -28 -30 -32 -33 -37 -45 -49 -52 -50
0 -82 -86 -110 -83 -66 -42 -48 -42 -123 -153 -173 -213 -218 -188 -165 -141 -148 -131 0 0 0 0 0 -12 -103 -77 -52 -111 -59 -40 -32 -35 -53 -77 -75 -43 -26 -18 -23 -26 -33 -29 -25 -31 -37 -37 -44 -43
0 -54 -63 -92 -75 -72 -53 -48 -44 -136 -190 -165 -207 -219 -235 -170 -116 -101 -115 0 0 0 0 0 0 -99 -77 -47 -53 -41 -36 -28 -35 -40 -71 -53 -41 -27 -20 -16 -20 -21 -32 -25 -39 -47 -70 -65 -54
-92 -82 -25 -77 -80 -84 -46 -30 -94 -188 -159 -174 -201 -225 -221 -168 -176 -96 -93 -140 0 0 0 -124 -39 -75 -54 -46 -45 -44 -36 -39 -37 -22 -34 -44 -39 -30 -20 -9 -20 -23 -28 -26 -28 -63 -161 -219 -179
-109 -15 -30 -39 -64 -68 -55 -25 -134 -228 -176 -169 -203 -205 -224 -195 -161 -125 -117 -101 -129 0 0 -124 -141 -68 -47 -50 -48 -43 -28 -39 -33 -26 -36 -44 -28 -22 -11 -12 -23 -22 -85 -201 -263 -330 -253 -267 -192
0 -43 -12 -24 -53 -64 -54 -52 -140 -217 -201 -154 -185 -212 -222 -252 -248 -182 -165 -138 -128 -145 -169 -163 -69 -81 -55 -53 -55 -39 -32 -33 -30 -23 -27 -34 -27 -21 -14 -17 -23 -21 -82 -140 -360 0 -124 -277 -238
0 0 0 0 0 -60 -57 -58 -115 -163 -197 -202 -190 -220 -213 -207 -214 -169 -160 -184 -181 -147 -198 -132 -93 -84 -47 -51 -33 -25 -20 -28 -26 -39 -36 -42 -66 -26 -17 -21 -17 -26 -73 -151 -150 -386 0 0 -271
0 0 0 0 0 -75 0 -91 -81 -176 -175 -172 -194 -215 -233 -216 -232 -188 -201 0 0 -156 -169 -141 -80 -80 -55 -39 -37 -27 -31 -52 -45 -38 -36 -62 -81 -45 -16 -19 -14 -13 -30 -136 -224 -255 0 0 0
0 0 0 0 0 0 0 0 0 -255 -250 -231 -235 -223 -222 -250 -291 -281 -170 -118 -178 0 -240 -98 -75 -160 -70 -59 -48 -44 -53 -73 -50 -45 -48 -82 -84 -91 -29 -25 -23 -17 -23 -53 -111 -303 0 0 0
0 0 0 0 0 0 0 0 0 0 -154 -262 -264 -283 -262 -278 -321 -298 -232 -219 -255 -295 -355 -162 -76 -92 -92 -86 -62 -55 -47 -36 -39 -29 -63 -95 -94 -115 -55 -34 -31 -21 -16 -25 -133 -11 0 0 0
0 0 0 0 0 0 0 0 0 0 0 -193 -240 -285 -286 -278 -319 -202 -282 -274 -273 0 -19 -29 -190 -118 -117 -129 -104 -75 -57 -52 -68 -62 -66 -112 -137 -107 -88 -42 -37 -23 -11 -58 -222 0 0 0 0
0 0 0 0 0 0 0 0 0 0 0 0 -169 -244 -317 -329 -317 -366 0 0 -321 -186 -284 -285 -235 -191 -163 -176 -171 -121 -89 -98 -99 -84 -65 -100 -139 -109 -116 -67 -53 -29 -18 -44 -192 -422 0 0 0
0 0 0 0 0 0 0 0 0 0 0 0 0 -79 -327 -375 -372 -393 0 0 -65 -301 -275 -245 -215 -192 -187 -219 -199 -167 -110 -94 -107 -89 -72 -85 -99 -140 -97 -93 -65 -33 -24 -58 -196 -316 0 0 0
0 0 0 0 0 0 0 0 0 0 0 0 0 0 -348 -446 -441 -389 -137 0 -116 -308 -270 -273 -217 -181 -208 -311 -230 -211 -121 -100 -99 -95 -108 -98 -88 -106 -110 -90 -61 -53 -34 -66 -180 -278 0 0 0
0 0 0 0 0 0 0 0 0 0 0 0 -141 -184 -272 -435 -466 -427 -386 -402 0 -341 -347 -293 -204 -195 -249 -282 -227 -236 -198 -165 -148 -125 -115 -105 -108 -120 -115 -51 -57 -54 -34 -47 -116 -184 -367 0 0
0 0 0 0 0 0 0 0 0 0 0 0 -7 -189 -241 -371 -446 -446 -431 -421 -175 -403 -363 -310 -216 -216 -261 -236 -206 -226 -246 -240 -202 -158 -162 -150 -129 -126 -81 -73 -70 -59 -29 -38 -87 -170 -305 -441 0
0 0 0 0 0 0 0 0 0 0 0 0 0 -216 -238 -322 -379 -401 -418 -412 -370 -389 -379 -369 -260 -228 -255 -214 -207 -198 -199 -207 -226 -222 -185 -167 -161 -161 -141 -93 -89 -81 -56 -47 -78 -130 -225 -320 -484
0 0 0 0 0 0 0 0 0 0 0 0 0 0 -228 -279 -339 -369 -378 -374 -364 -345 -388 -420 -343 -257 -265 -263 -225 -223 -214 -197 -195 -223 -223 -190 -183 -186 -186 -157 -144 -126 -124 -97 -94 -106 -186 -258 -361
Wind_Speed
20 19 20 14 13 16 11 14 21 25 29 22 27 21 23 10 18 22 26 26 26 25 24 24 24 24 24 24 24 24 24 24 23 23 23 23 23 20 23 24 23 23 22 20 13 11 10 11 10
23 20 17 11 7 11 14 20 29 22 25 33 19 20 14 18 13 27 26 27 26 25 24 24 24 23 24 24 24 24 24 24 24 23 23 23 19 9 22 23 22 22 22 21 6 9 11 11 12
22 16 17 18 13 11 10 20 18 9 32 25 17 10 12 14 22 29 27 27 26 25 24 24 24 23 24 24 25 24 24 24 23 23 22 19 19 23 18 17 19 20 19 17 14 11 11 13 14
19 15 15 18 5 7 13 5 25 28 19 14 4 8 9 16 28 26 27 26 26 25 24 23 23 23 24 25 24 24 24 24 22 22 21 19 19 19 17 17 16 16 15 15 13 10 12 14 15
15 15 10 14 9 5 13 23 13 22 21 14 14 8 15 17 24 28 26 26 25 24 22 22 23 24 24 24 24 23 23 22 22 21 20 20 18 17 15 14 14 14 13 13 13 12 10 12 12
11 11 8 10 3 5 3 24 4 8 9 11 6 12 19 20 27 28 26 26 25 24 22 22 23 23 25 24 24 23 22 21 21 20 20 19 16 14 14 14 13 13 13 13 12 13 13 9 9
11 10 6 11 12 6 6 13 11 4 3 12 14 8 15 25 28 28 26 25 25 23 22 23 23 24 24 23 23 22 22 20 18 17 17 15 15 14 14 14 12 12 14 14 14 14 14 11 14
11 10 9 12 13 10 8 10 4 9 10 4 11 16 24 27 28 27 26 25 25 23 23 23 24 24 24 24 23 22 20 17 16 16 15 15 14 15 16 10 15 14 15 15 15 16 17 20 20
10 9 8 10 9 8 1 4 12 10 6 14 14 8 17 27 28 26 25 25 25 24 23 24 25 25 24 24 22 21 18 16 16 15 16 17 17 17 17 17 14 14 16 17 18 18 18 21 23
10 8 8 8 8 8 2 6 5 13 4 12 9 6 16 25 29 27 26 26 26 26 24 25 26 25 25 23 22 19 18 16 16 16 16 18 17 18 17 17 17 17 17 18 18 17 17 19 19
11 10 10 10 8 5 2 7 11 6 15 18 8 13 19 22 27 27 26 26 26 25 25 26 26 25 24 22 20 19 18 16 16 16 17 17 16 17 17 17 18 18 17 17 16 15 15 16 18
12 13 15 8 8 7 6 7 10 11 11 11 12 16 21 23 24 27 27 24 25 26 26 27 27 26 25 22 19 19 18 17 17 16 16 16 16 17 16 17 17 16 15 16 16 16 15 15 14
14 14 14 4 5 6 7 12 11 13 11 9 11 16 20 24 25 29 28 23 23 28 27 28 28 26 24 21 19 19 18 18 16 17 17 15 16 16 16 15 13 15 15 14 16 16 14 14 14
15 13 12 18 7 6 7 11 11 12 7 6 14 18 22 25 27 23 29 26 25 27 29 28 28 26 24 21 19 19 19 18 16 17 17 15 16 15 14 14 11 11 12 14 16 16 13 13 14
14 11 8 6 8 10 6 13 16 8 8 8 13 21 22 25 25 28 30 31 29 28 29 28 28 26 24 22 21 20 20 21 20 18 16 16 15 16 16 15 11 10 11 16 17 15 14 15 15
12 13 13 13 12 12 17 16 14 10 9 11 13 19 21 26 26 28 30 30 31 30 30 30 28 27 25 23 22 22 21 21 21 18 18 17 14 16 16 15 13 12 11 11 12 12 12 14 16
16 14 12 13 17 14 18 18 16 6 6 10 11 19 22 21 23 25 33 33 33 32 32 30 29 28 27 25 25 23 21 23 22 21 20 16 13 13 14 14 12 10 11 10 14 14 12 18 19
16 15 16 15 19 20 22 24 13 6 4 4 8 13 20 22 24 24 28 34 33 34 33 31 30 29 28 27 26 23 24 22 21 20 18 15 13 13 12 11 12 11 11 13 15 23 19 25 23
16 17 20 18 20 23 26 26 12 9 8 4 9 13 16 20 20 25 23 17 35 35 34 33 31 31 30 29 29 27 27 24 22 20 18 17 14 13 11 11 12 12 10 11 14 18 22 23 21
20 21 23 20 20 22 24 28 26 19 5 10 14 17 18 20 22 25 30 18 37 37 36 35 32 32 32 31 30 27 27 25 22 21 19 16 15 14 13 12 14 13 12 12 12 13 17 19 18
21 24 23 23 22 24 26 26 22 23 28 18 18 17 18 21 23 24 27 31 40 40 38 37 34 33 33 33 31 28 27 25 24 24 21 19 17 17 16 14 14 14 13 13 14 14 17 18 18
29 26 26 25 25 27 22 25 26 23 25 11 15 14 17 17 20 24 28 28 39 42 40 38 35 35 35 35 35 34 33 30 27 25 22 20 19 18 17 15 14 14 14 13 13 14 15 16 17
31 25 29 29 31 30 30 28 25 20 22 24 18 17 17 15 16 22 29 29 43 22 41 40 37 36 36 36 37 37 35 31 27 25 25 22 20 19 18 17 16 16 16 18 18 17 17 18 18
24 24 25 27 31 38 34 31 33 29 25 26 2 11 14 15 17 19 27 16 22 34 36 41 39 38 38 37 39 39 37 34 30 28 26 24 21 20 19 17 17 17 17 18 19 19 20 20 20
29 28 33 36 36 40 28 33 37 21 23 26 25 3 10 16 19 19 22 27 18 29 35 38 41 37 39 38 38 39 39 36 33 31 28 25 22 21 20 18 17 17 17 18 18 19 19 19 19
32 32 34 35 41 40 28 38 35 31 29 27 27 25 3 14 20 21 25 25 19 31 33 25 32 36 37 39 39 40 39 38 35 33 30 27 24 22 21 19 17 18 17 17 17 17 17 17 17
31 35 36 42 33 36 36 35 35 34 33 25 23 21 13 7 17 22 26 29 22 21 25 19 19 31 33 38 40 41 40 39 37 35 32 29 26 24 22 19 17 17 16 16 16 15 15 15 14
28 24 32 34 45 46 40 39 39 29 24 21 22 22 17 1 13 20 25 27 26 20 23 23 19 34 29 34 40 42 42 41 38 36 33 31 28 26 23 19 18 17 15 15 15 14 14 13 12
31 33 30 31 38 47 47 48 35 36 33 30 27 24 19 7 11 21 22 24 25 18 20 25 21 21 27 28 30 43 43 41 40 38 36 33 29 26 24 20 17 16 16 14 13 13 12 12 10
34 37 38 42 39 40 42 48 25 25 27 29 29 25 20 9 3 10 16 18 22 19 21 22 25 22 24 21 19 31 42 43 41 39 37 34 29 23 23 20 18 17 16 14 14 13 11 10 8
Wind_Direction
95 95 106 210 221 194 201 193 176 165 160 170 153 164 132 222 142 100 141 138 109 107 103 105 100 93 85 83 84 79 79 81 74 83 81 83 97 140 114 94 78 91 77 54 356 333 327 328 329
95 92 153 243 238 197 195 180 157 178 173 144 171 169 193 129 195 121 133 118 112 112 105 104 101 88 92 89 88 95 97 97 99 98 96 105 151 211 88 97 118 109 99 99 240 280 311 317 327
96 158 167 175 199 203 208 185 180 104 130 166 182 229 217 184 117 118 124 111 110 110 105 101 98 92 100 103 100 99 111 109 110 107 109 145 146 102 151 154 138 127 127 145 167 202 256 292 302
125 178 190 161 221 228 139 133 96 104 190 205 284 311 264 193 122 141 111 109 108 107 100 94 95 90 103 113 109 110 111 110 119 118 128 146 147 142 156 153 148 143 154 153 162 206 276 292 282
154 181 196 140 26 236 91 102 199 141 190 215 215 285 56 189 156 112 110 114 110 108 98 96 96 100 111 117 108 111 118 126 121 125 135 141 147 151 157 166 162 160 162 159 154 147 178 258 257
231 239 315 22 304 211 187 110 239 232 239 237 302 32 114 184 115 119 115 114 112 104 96 95 102 98 114 116 114 121 126 129 126 130 137 140 149 163 172 177 184 176 165 155 151 130 132 164 181
287 307 334 234 213 55 75 96 238 1 17 239 68 310 193 121 128 123 118 116 116 106 97 101 103 119 127 126 118 120 119 131 141 145 153 158 155 168 163 173 196 180 157 149 140 131 124 142 147
238 282 273 233 225 238 237 239 317 264 264 328 250 198 126 130 127 124 122 117 120 107 105 104 122 133 128 123 122 128 134 146 157 159 167 170 165 158 134 234 171 161 147 144 139 132 124 119 130
236 273 261 257 265 269 243 299 248 258 355 248 247 301 96 121 125 120 121 128 125 120 113 113 134 134 130 126 126 135 141 153 157 159 156 158 155 152 147 146 159 151 144 139 135 131 130 124 125
257 281 278 285 294 273 272 260 276 246 324 253 274 346 99 119 132 128 130 131 133 131 119 125 140 133 122 130 139 149 152 155 154 159 158 154 154 151 150 151 148 145 141 136 135 138 140 139 140
271 292 306 260 271 287 270 247 246 276 233 230 64 92 116 121 131 136 133 134 135 130 125 136 138 133 123 145 156 157 161 160 157 158 158 157 154 151 146 147 140 142 144 142 142 148 151 150 143
273 237 209 291 257 253 237 241 251 255 264 264 84 109 121 128 131 139 142 132 133 138 132 138 140 133 132 152 164 164 164 161 162 161 159 159 154 148 148 142 143 146 146 145 147 150 154 159 161
286 270 189 147 282 255 237 237 258 260 294 34 78 112 126 133 135 148 150 127 125 147 139 143 148 140 148 164 172 171 173 166 172 163 158 161 156 151 148 147 146 145 147 152 147 148 161 165 166
269 280 241 93 263 265 267 252 268 283 342 42 92 118 131 139 143 135 188 140 136 139 147 145 158 150 155 167 176 178 178 171 174 169 163 161 156 154 154 151 155 156 161 155 147 152 168 172 164
274 290 281 307 46 270 293 249 247 335 18 60 102 128 133 141 142 152 171 172 155 147 148 145 165 167 164 171 178 177 177 168 164 170 171 161 159 153 146 144 150 153 151 146 146 150 159 157 154
284 278 275 261 261 263 243 242 264 68 62 70 97 124 136 148 150 157 188 198 188 162 154 157 171 173 172 173 176 177 178 170 166 174 169 164 169 158 149 146 150 146 153 164 166 163 162 159 154
266 275 280 269 258 267 250 246 259 358 36 74 83 127 140 143 148 153 176 191 180 175 166 162 173 178 174 174 175 180 183 173 169 168 166 173 180 172 160 157 160 160 154 159 145 145 150 133 135
269 269 268 274 252 254 248 237 299 343 15 35 83 112 141 149 154 151 156 194 188 177 183 179 176 181 182 179 179 185 181 182 182 180 179 185 188 179 175 169 159 157 156 148 139 91 52 66 93
268 264 259 262 257 255 251 258 306 303 300 314 121 132 141 153 151 156 153 146 192 192 189 184 182 183 183 180 174 181 177 183 186 189 189 182 187 191 187 180 167 155 156 152 143 120 89 78 97
265 264 256 267 263 260 262 252 258 270 245 151 147 149 150 151 156 161 167 156 206 198 191 190 186 176 179 183 182 190 186 186 189 189 192 193 191 183 174 165 153 151 142 143 150 140 121 101 98
265 259 263 264 271 265 259 259 269 265 243 180 164 162 158 161 163 164 167 170 201 196 193 192 186 180 180 186 190 194 195 192 188 183 183 184 182 177 167 159 148 139 138 130 127 127 118 104 99
255 260 263 268 267 262 271 268 264 270 254 173 164 162 166 166 169 170 173 173 183 203 194 189 184 184 181 186 189 187 185 183 187 186 185 183 181 179 171 162 153 144 134 131 131 127 125 125 119
256 263 261 264 263 265 259 265 266 273 265 259 171 173 176 175 174 175 177 176 198 231 203 198 188 185 181 183 189 189 187 190 194 194 186 187 184 176 168 154 142 132 121 109 108 114 113 110 117
258 262 267 267 262 253 253 256 257 254 260 259 240 179 184 182 181 182 178 182 227 228 225 208 192 186 183 182 186 188 190 191 195 194 188 187 184 178 170 156 140 134 120 108 102 102 102 101 101
248 254 254 254 251 247 262 252 247 267 265 262 283 215 193 189 184 182 181 177 212 229 229 222 190 180 183 183 183 185 192 192 191 190 186 190 189 180 168 158 145 137 126 112 106 104 104 101 101
244 246 250 252 245 245 261 246 251 257 260 268 283 301 234 183 181 182 180 178 195 229 231 232 174 177 178 183 184 185 188 196 197 192 192 195 195 186 176 166 155 133 125 116 113 107 109 105 103
247 246 251 251 260 253 251 248 250 250 251 276 288 306 327 176 174 175 176 177 185 212 226 217 187 175 175 182 187 188 188 191 194 195 197 201 205 197 188 183 151 135 130 123 123 117 108 107 105
248 246 247 249 243 243 247 243 242 251 257 279 288 306 327 7 171 170 173 176 179 200 220 225 205 180 178 179 186 193 194 195 195 197 195 195 198 195 185 168 152 146 140 132 130 121 117 118 119
244 246 250 253 249 241 243 236 252 248 252 266 282 298 317 344 169 170 173 176 178 208 215 225 215 201 184 181 180 194 197 197 197 197 198 196 193 190 186 173 157 158 157 148 139 142 136 130 128
250 247 247 246 247 250 247 237 260 256 260 263 269 289 312 331 165 179 178 179 182 220 220 217 227 215 193 198 199 184 194 199 200 199 198 197 190 181 181 176 171 170 172 161 165 170 157 152 148